Location: Diebersbach
(48.5163°N, 8.0558°E)
Time: 18:34:36
(UTC+00:00)

Cosmos 1825 - Pass Details

Date: 03 November 2021
Orbit: 501 x 504 km, 82.5° (Epoch: 30 November)

Event Time Altitude Azimuth Distance (km) Brightness Sun altitude
Rises 17:55:41 0° 342° (NNW) 2,612 6.0 -18.7°
Reaches altitude 10° 17:57:56 10° 332° (NNW) 1,722 5.2 -19.1°
Maximum altitude 18:01:19 32° 268° (W) 877 4.0 -19.6°
Drops below altitude 10° 18:04:42 10° 204° (SSW) 1,710 5.1 -20.2°
Sets 18:06:56 0° 195° (SSW) 2,590 5.9 -20.6°
